Location: Leeds
(37.2390°N, 113.3580°W)
Time: 03:21:25
(UTC-07:00)

ISS - All Passes

Search period start: 24 February 2017 00:00
Search period end: 06 March 2017 00:00
Orbit: 399 x 408 km, 51.6° (Epoch: 24 February)

Date Brightness Start Highest point End Pass type
(mag) Time Alt. Az. Time Alt. Az. Time Alt. Az.
24 Feb - 08:20:53 10° SW 08:24:07 61° SE 08:27:23 10° NE daylight
24 Feb - 09:58:31 10° WNW 10:00:51 18° NNW 10:03:10 10° NNE daylight
24 Feb - 14:50:35 10° NNW 14:53:34 32° NNE 14:56:33 10° E daylight
24 Feb - 16:27:16 10° WNW 16:29:55 23° SW 16:32:33 10° S daylight
25 Feb - 07:28:50 10° SSW 07:31:42 28° SE 07:34:35 10° ENE daylight
25 Feb - 09:05:14 10° W 09:08:07 27° NNW 09:11:01 10° NNE daylight
25 Feb - 13:58:22 10° NNW 14:00:53 20° NNE 14:03:23 10° ENE daylight
25 Feb - 15:34:20 10° WNW 15:37:31 48° SW 15:40:40 10° SSE daylight
26 Feb - 06:37:31 10° SSE 06:39:21 14° SE 06:41:10 10° E visible
26 Feb - 08:12:17 10° WSW 08:15:28 49° NW 08:18:42 10° NE daylight
26 Feb - 09:51:32 10° NW 09:52:35 11° NNW 09:53:37 10° N daylight
26 Feb - 13:06:20 10° N 13:08:05 14° NNE 13:09:50 10° NE daylight
26 Feb - 14:41:43 10° NW 14:45:01 78° NE 14:48:17 10° SE daylight
27 Feb - 07:19:39 10° SW 07:22:55 79° SE 07:26:12 10° NE daylight
27 Feb - 08:57:38 10° WNW 08:59:43 16° NNW 09:01:49 10° NNE daylight
27 Feb - 13:49:17 10° NW 13:52:25 38° NE 13:55:30 10° ESE daylight
27 Feb - 15:26:18 10° W 15:28:39 18° SW 15:30:58 10° S daylight
28 Feb - 06:27:23 10° SSW 06:30:25 35° SE 06:33:28 10° ENE visible
28 Feb - 08:04:13 10° W 08:06:56 23° NNW 08:09:41 10° NNE daylight
28 Feb - 12:57:00 10° NNW 12:59:42 23° NNE 13:02:23 10° E daylight
28 Feb - 14:33:10 10° WNW 14:36:14 37° SW 14:39:17 10° SSE daylight
01 Mar - 05:35:44 10° S 05:38:00 18° SE 05:40:17 10° E visible
01 Mar - 07:11:06 10° WSW 07:14:14 40° NW 07:17:23 10° NE daylight
01 Mar - 08:51:05 10° NNW 08:51:25 10° NNW 08:51:44 10° NNW daylight
01 Mar - 12:04:51 10° NNW 12:06:54 15° NNE 12:08:56 10° ENE daylight
01 Mar - 13:40:25 10° NW 13:43:44 83° SW 13:46:59 10° SE daylight
02 Mar - 06:18:18 10° SW 06:21:36 82° NW 06:24:53 10° NE visible
02 Mar - 07:56:41 10° WNW 07:58:30 14° NNW 08:00:19 10° N daylight
02 Mar - 11:13:04 10° N 11:14:00 11° NNE 11:14:55 10° NE daylight
02 Mar - 12:47:54 10° NW 12:51:06 47° NE 12:54:17 10° ESE daylight
02 Mar - 14:25:21 10° W 14:27:15 15° SW 14:29:10 10° SSW daylight
03 Mar - 05:25:53 10° SSW 05:29:02 45° SE 05:32:12 10° ENE visible
03 Mar - 07:03:06 10° W 07:05:38 20° NNW 07:08:12 10° NNE daylight
03 Mar - 11:55:32 10° NNW 11:58:23 26° NNE 12:01:14 10° E daylight
03 Mar - 13:31:55 10° WNW 13:34:50 29° SW 13:37:43 10° SSE daylight
04 Mar - 04:33:58 10° S 04:36:33 22° SE 04:39:10 10° ENE visible
04 Mar - 06:09:51 10° W 06:12:52 33° NNW 06:15:54 10° NNE visible
04 Mar - 11:03:17 10° NNW 11:05:34 17° NNE 11:07:50 10° ENE daylight
04 Mar - 12:39:03 10° NW 12:42:19 65° SW 12:45:33 10° SE daylight
05 Mar - 03:43:20 10° SE 03:44:08 11° SE 03:44:56 10° ESE visible
05 Mar - 05:16:54 10° WSW 05:20:10 65° NW 05:23:27 10° NE visible
05 Mar - 06:55:39 10° NW 06:57:09 12° NNW 06:58:40 10° N daylight
05 Mar - 10:11:17 10° N 10:12:40 12° NNE 10:14:01 10° NE daylight
05 Mar - 11:46:25 10° NW 11:49:41 59° NE 11:52:55 10° ESE daylight
05 Mar - 13:24:30 10° WSW 13:25:44 12° SW 13:26:59 10° SSW daylight
